Date,TemperatureHighF,TemperatureAvgF,TemperatureLowF,DewpointHighF,DewpointAvgF,DewpointLowF,HumidityHigh,HumidityAvg,HumidityLow,PressureMaxIn,PressureMinIn,WindSpeedMaxMPH,WindSpeedAvgMPH,GustSpeedMaxMPH,PrecipitationSumIn
2013-1-1,34.0,28.6,21.0,22.0,19.0,16.0,88,67,52,0.00,40.00,10,5,16,0.00
2013-1-3,24.0,17.2,4.0,17.0,11.6,1.0,91,79,70,0.00,40.00,6,4,10,0.00
2013-1-4,11.0,4.9,-6.0,8.0,0.9,-11.0,88,84,79,0.00,40.00,3,1,4,0.00
2013-1-5,1.0,-4.2,-10.0,-3.0,-9.6,-16.0,82,77,73,0.00,40.00,0,0,0,0.00
2013-1-6,7.0,0.3,-9.0,3.0,-4.6,-15.0,85,80,73,0.00,40.00,2,1,4,0.00
2013-1-7,4.0,-3.7,-16.0,-1.0,-9.3,-23.0,83,76,68,0.00,40.00,3,1,5,0.00
2013-1-8,-1.0,-5.9,-19.0,-6.0,-11.5,-27.0,79,76,66,0.00,40.00,0,0,0,0.00
2013-1-9,1.0,-5.8,-18.0,-4.0,-11.7,-25.0,80,75,67,0.00,40.00,0,0,0,0.00
2013-1-10,11.0,5.5,-4.0,8.0,1.6,-10.0,86,83,76,0.00,40.00,3,1,4,0.00
2013-1-11,16.0,11.1,-7.0,14.0,7.9,-13.0,90,87,76,0.00,40.00,4,2,5,0.00
2013-1-12,27.0,18.2,15.0,24.0,15.6,12.0,93,90,87,0.00,40.00,6,3,8,0.00
2013-1-13,33.0,29.8,27.0,33.0,28.7,24.0,99,95,85,0.00,40.00,6,3,10,0.00
2013-1-14,35.0,31.9,27.0,34.0,31.1,26.0,99,96,82,0.00,40.00,11,4,22,0.58
2013-1-15,31.0,14.3,9.0,26.0,9.6,5.0,87,81,71,0.00,40.00,15,6,25,0.24
2013-1-16,10.0,1.7,-9.0,6.0,-2.6,-15.0,85,82,74,0.00,40.00,4,1,6,0.00
2013-1-17,7.0,1.4,-14.0,3.0,-4.4,-21.0,85,77,63,0.00,40.00,5,1,9,0.00
2013-1-18,-11.0,-18.6,-29.0,-19.0,-26.4,-38.0,71,66,60,0.00,40.00,0,0,0,0.00
2013-1-19,6.0,-3.4,-19.0,-4.0,-11.4,-27.0,78,68,50,0.00,40.00,7,1,13,0.00
2013-1-20,11.0,7.6,0.0,8.0,1.9,-8.0,86,77,60,0.00,40.00,7,3,9,0.00
2013-1-21,11.0,8.3,-1.0,6.0,2.6,-6.0,85,77,68,0.00,40.00,6,3,12,0.00
2013-1-22,8.0,-0.2,-4.0,0.0,-5.7,-9.0,81,77,70,0.00,40.00,4,2,7,0.00
2013-1-23,10.0,3.0,-6.0,0.0,-4.7,-12.0,83,71,58,0.00,40.00,8,4,13,0.00
2013-1-24,4.0,-2.4,-15.0,-4.0,-10.7,-22.0,78,67,58,0.00,40.00,6,1,12,0.00
2013-1-25,-15.0,-22.4,-38.0,-22.0,-37.4,-99.9,70,62,52,0.00,40.00,0,0,0,0.00
2013-1-26,-29.0,-28.4,-45.0,-38.0,-52.4,-99.9,59,55,47,0.00,40.00,0,0,0,0.00
2013-1-27,-35.0,-41.1,-48.0,-47.0,-52.9,-61.0,53,48,45,0.00,40.00,0,0,0,0.00
2013-1-28,-19.0,-34.3,-49.0,-27.0,-56.2,-99.9,65,51,45,0.00,40.00,0,0,0,0.00
2013-1-29,-6.0,-12.9,-28.0,-13.0,-20.2,-37.0,75,69,60,0.00,40.00,0,0,0,0.00
2013-1-30,8.0,-0.3,-7.0,1.0,-7.4,-13.0,74,71,65,0.00,40.00,4,1,6,0.00
2013-1-31,11.0,8.7,6.0,7.0,3.7,1.0,85,80,70,0.00,40.00,4,2,6,0.00